Location: Unspecified
(41.5516°N, 88.1098°W)
Time: 13:49:16
(UTC-05:00)

Hubble Space Telescope - Visible Passes

Search period start: 04 September 2015 00:00
Search period end: 14 September 2015 00:00
Orbit: 541 x 545 km, 28.5° (Epoch: 02 September)

Date Brightness Start Highest point End Pass type
(mag) Time Alt. Az. Time Alt. Az. Time Alt. Az.
07 Sep 3.3 04:28:01 10° SSE 04:28:01 10° SSE 04:28:08 10° SSE visible
08 Sep 3.4 04:19:37 10° SSE 04:19:37 10° SSE 04:19:39 10° SSE visible
08 Sep 3.0 05:56:46 10° SSW 05:58:41 13° S 06:00:34 10° SSE visible
09 Sep 3.0 05:47:55 10° SSW 05:49:35 12° S 05:51:14 10° SSE visible
10 Sep 3.0 05:39:14 10° SSW 05:40:29 11° S 05:41:42 10° S visible
